,,Stat5,,Stat1,,Stat2,,Stat3,,Stat4,,Wind1,,Wind1,
time,status,PA1M_AVG,status,PR1M_SUM,status,RH1M_AVG,status,SR1M_AVG,status,TA1M_AVG,status,W1dAve1m,status,W1sAve1m,
2002-04-04, 00:00:01,VALID,917.405,VALID,0,VALID,98.3459,VALID,0.0849042,VALID,19.2237,VALID,172,VALID,0.357617,
2002-04-04, 00:01:01,VALID,917.432,VALID,0,VALID,98.2709,VALID,0.101885,VALID,19.2041,VALID,170,VALID,0.498698,
2002-04-04, 00:02:00,VALID,917.447,VALID,0,VALID,98.1412,VALID,0.0849042,VALID,19.1921,VALID,164,VALID,0.662695,
2002-04-04, 00:03:00,VALID,917.453,VALID,0,VALID,98.0738,VALID,0.0679233,VALID,19.1568,VALID,158,VALID,0.564509,
2002-04-04, 00:04:00,VALID,917.451,VALID,0,VALID,98.0776,VALID,0.0849042,VALID,19.1273,VALID,148,VALID,0.454928,
2002-04-04, 00:05:00,VALID,917.457,VALID,0,VALID,98.0407,VALID,0.0849042,VALID,19.1241,VALID,154,VALID,0.552979,
2002-04-04, 00:06:01,VALID,917.443,VALID,0,VALID,98.0623,VALID,0.101885,VALID,19.1139,VALID,153,VALID,0.697635,
2002-04-04, 00:07:00,VALID,917.457,VALID,0,VALID,98.1005,VALID,0.0849042,VALID,19.1238,VALID,155,VALID,0.653201,
2002-04-04, 00:08:00,VALID,917.453,VALID,0,VALID,98.1526,VALID,0.101885,VALID,19.1464,VALID,165,VALID,0.77484,
2002-04-04, 00:09:00,VALID,917.457,VALID,0,VALID,98.1869,VALID,0.0509425,VALID,19.1693,VALID,164,VALID,0.597957,
2002-04-04, 00:10:00,VALID,917.432,VALID,0,VALID,98.2187,VALID,0.0509425,VALID,19.1991,VALID,170,VALID,0.338616,
2002-04-04, 00:11:00,VALID,917.402,VALID,0,VALID,98.2556,VALID,0.0169808,VALID,19.2147,VALID,157,VALID,0.260742,
2002-04-04, 00:12:01,VALID,917.365,VALID,0,VALID,98.1946,VALID,-0.0509425,VALID,19.2351,VALID,99,VALID,0.212305,
2002-04-04, 00:13:00,VALID,917.344,VALID,0,VALID,97.9987,VALID,-0.0169808,VALID,19.2226,VALID,97,VALID,0.339063,
2002-04-04, 00:14:00,VALID,917.324,VALID,0,VALID,97.9479,VALID,-0.0339617,VALID,19.1903,VALID,109,VALID,0.521537,
2002-04-04, 00:15:00,VALID,917.297,VALID,0,VALID,97.9886,VALID,0,VALID,19.1903,VALID,128,VALID,0.262804,
2002-04-04, 00:16:00,VALID,917.279,VALID,0,VALID,98.0064,VALID,-0.0509425,VALID,19.1906,VALID,139,VALID,0.656473,
2002-04-04, 00:17:00,VALID,917.279,VALID,0,VALID,98.0165,VALID,-0.0509425,VALID,19.2065,VALID,137,VALID,0.553843,
2002-04-04, 00:18:00,VALID,917.278,VALID,0,VALID,97.9619,VALID,-0.0509425,VALID,19.1966,VALID,125,VALID,0.522804,
2002-04-04, 00:19:00,VALID,917.275,VALID,0,VALID,97.9593,VALID,-0.0339617,VALID,19.1869,VALID,122,VALID,0.814103,
2002-04-04, 00:20:01,VALID,917.266,VALID,0,VALID,97.9937,VALID,-0.0339617,VALID,19.1936,VALID,119,VALID,0.77484,
2002-04-04, 00:21:01,VALID,917.251,VALID,0,VALID,97.911,VALID,-0.0509425,VALID,19.1742,VALID,101,VALID,0.682366,
2002-04-04, 00:22:00,VALID,917.258,VALID,0,VALID,97.705,VALID,-0.0169808,VALID,19.122,VALID,91,VALID,0.604646,
2002-04-04, 00:23:01,VALID,917.265,VALID,0,VALID,97.7889,VALID,-0.0509425,VALID,19.0934,VALID,114,VALID,0.539063,
2002-04-04, 00:24:01,VALID,917.256,VALID,0,VALID,97.9186,VALID,-0.0339617,VALID,19.1026,VALID,127,VALID,0.533398,
2002-04-04, 00:25:00,VALID,917.262,VALID,0,VALID,97.9059,VALID,0,VALID,19.1096,VALID,128,VALID,0.59924,
2002-04-04, 00:26:01,VALID,917.267,VALID,0,VALID,97.9682,VALID,0,VALID,19.1056,VALID,137,VALID,0.797931,
2002-04-04, 00:27:00,VALID,917.258,VALID,0,VALID,98.0026,VALID,-0.0679233,VALID,19.1327,VALID,144,VALID,0.744792,
2002-04-04, 00:28:00,VALID,917.246,VALID,0,VALID,98.0407,VALID,-0.0509425,VALID,19.1354,VALID,152,VALID,0.817773,
2002-04-04, 00:29:00,VALID,917.241,VALID,0,VALID,98.1017,VALID,-0.0509425,VALID,19.1479,VALID,149,VALID,0.893164,
2002-04-04, 00:30:01,VALID,917.223,VALID,0,VALID,98.0954,VALID,-0.0509425,VALID,19.1707,VALID,147,VALID,0.761819,
2002-04-04, 00:31:01,VALID,917.19,VALID,0,VALID,98.1399,VALID,-0.0509425,VALID,19.1802,VALID,152,VALID,0.513221,
2002-04-04, 00:32:01,VALID,917.165,VALID,0,VALID,98.1386,VALID,-0.0169808,VALID,19.2,VALID,160,VALID,0.475446,
2002-04-04, 00:33:00,VALID,917.146,VALID,0,VALID,98.1145,VALID,-0.0509425,VALID,19.2025,VALID,160,VALID,0.53726,
2002-04-04, 00:34:01,VALID,917.137,VALID,0,VALID,98.0928,VALID,-0.0509425,VALID,19.2129,VALID,160,VALID,0.692229,
2002-04-04, 00:35:01,VALID,917.117,VALID,0,VALID,98.0522,VALID,-0.0169808,VALID,19.2028,VALID,154,VALID,0.613076,
2002-04-04, 00:36:01,VALID,917.106,VALID,0,VALID,98.0433,VALID,-0.0849042,VALID,19.2097,VALID,146,VALID,0.518229,
2002-04-04, 00:37:01,VALID,917.111,VALID,0,VALID,98.0229,VALID,-0.0509425,VALID,19.2062,VALID,141,VALID,0.501953,
2002-04-04, 00:38:01,VALID,917.106,VALID,0,VALID,97.9606,VALID,-0.0169808,VALID,19.2065,VALID,132,VALID,0.390165,
2002-04-04, 00:39:01,VALID,917.105,VALID,0,VALID,97.9479,VALID,-0.0509425,VALID,19.1938,VALID,118,VALID,0.410051,
2002-04-04, 00:40:01,VALID,917.092,VALID,0,VALID,97.9466,VALID,-0.0509425,VALID,19.1802,VALID,117,VALID,0.410657,
2002-04-04, 00:41:01,VALID,917.082,VALID,0,VALID,97.9466,VALID,-0.0339617,VALID,19.1834,VALID,111,VALID,0.478365,
2002-04-04, 00:42:01,VALID,917.077,VALID,0,VALID,97.8919,VALID,-0.0679233,VALID,19.164,VALID,111,VALID,0.395833,
2002-04-04, 00:43:01,VALID,917.074,VALID,0,VALID,98.014,VALID,-0.0339617,VALID,19.1702,VALID,111,VALID,0.39933,
2002-04-04, 00:44:01,VALID,917.07,VALID,0,VALID,97.9708,VALID,-0.0169808,VALID,19.1804,VALID,103,VALID,0.56764,
2002-04-04, 00:45:01,VALID,917.085,VALID,0,VALID,97.8983,VALID,-0.0509425,VALID,19.1645,VALID,98,VALID,0.59668,
2002-04-04, 00:46:01,VALID,917.066,VALID,0,VALID,97.85,VALID,-0.0169808,VALID,19.1285,VALID,93,VALID,0.737305,
2002-04-04, 00:47:01,VALID,917.051,VALID,0,VALID,97.9301,VALID,-0.0679233,VALID,19.1093,VALID,91,VALID,0.744088,
2002-04-04, 00:48:01,VALID,917.046,VALID,0,VALID,98.117,VALID,-0.0509425,VALID,19.1253,VALID,114,VALID,0.796224,
2002-04-04, 00:49:01,VALID,917.041,VALID,0,VALID,98.1793,VALID,-0.0339617,VALID,19.1613,VALID,121,VALID,0.730134,
2002-04-04, 00:50:01,VALID,917.024,VALID,0,VALID,98.1513,VALID,-0.0679233,VALID,19.171,VALID,124,VALID,0.563133,
2002-04-04, 00:51:01,VALID,917.029,VALID,0,VALID,98.1424,VALID,-0.0339617,VALID,19.1702,VALID,111,VALID,0.365076,
2002-04-04, 00:52:01,VALID,917.024,VALID,0,VALID,98.0394,VALID,-0.0849042,VALID,19.1707,VALID,138,VALID,0.606971,
2002-04-04, 00:53:01,VALID,917.006,VALID,0,VALID,97.9136,VALID,-0.0339617,VALID,19.1483,VALID,141,VALID,0.884816,
2002-04-04, 00:54:01,VALID,916.999,VALID,0,VALID,97.8996,VALID,-0.0339617,VALID,19.1387,VALID,140,VALID,0.792634,
2002-04-04, 00:55:01,VALID,917,VALID,0,VALID,97.9161,VALID,-0.0339617,VALID,19.1225,VALID,144,VALID,0.792352,
2002-04-04, 00:56:01,VALID,916.993,VALID,0,VALID,97.9542,VALID,-0.0849042,VALID,19.1262,VALID,140,VALID,0.675881,
2002-04-04, 00:57:00,VALID,916.978,VALID,0,VALID,98.0051,VALID,-0.0679233,VALID,19.1128,VALID,147,VALID,0.529688,
2002-04-04, 00:58:00,VALID,916.973,VALID,0,VALID,98.028,VALID,-0.0679233,VALID,19.1163,VALID,150,VALID,0.388091,
2002-04-04, 00:59:00,VALID,916.954,VALID,0,VALID,98.0878,VALID,-0.101885,VALID,19.1133,VALID,150,VALID,0.116132,
2002-04-04, 01:00:00,VALID,916.937,VALID,0,VALID,98.0992,VALID,-0.0679233,VALID,19.0997,VALID,150,VALID,0,
2002-04-04, 01:01:00,VALID,916.917,VALID,0,VALID,98.0738,VALID,-0.0849042,VALID,19.084,VALID,150,VALID,0,
2002-04-04, 01:02:00,VALID,916.918,VALID,0,VALID,98.0611,VALID,-0.0849042,VALID,19.0743,VALID,150,VALID,0.00078125,
2002-04-04, 01:03:00,VALID,916.915,VALID,0,VALID,98.0255,VALID,-0.0679233,VALID,19.0549,VALID,150,VALID,0,
2002-04-04, 01:04:00,VALID,916.917,VALID,0,VALID,97.9898,VALID,-0.0679233,VALID,19.0418,VALID,150,VALID,0,
2002-04-04, 01:05:00,VALID,916.899,VALID,0,VALID,98.0102,VALID,-0.0339617,VALID,19.0351,VALID,150,VALID,0,
2002-04-04, 01:06:00,VALID,916.886,VALID,0,VALID,97.9873,VALID,-0.0169808,VALID,19.0351,VALID,150,VALID,0,
2002-04-04, 01:07:00,VALID,916.872,VALID,0,VALID,97.897,VALID,-0.0339617,VALID,19.0256,VALID,150,VALID,0,
2002-04-04, 01:08:00,VALID,916.865,VALID,0,VALID,97.7737,VALID,-0.0509425,VALID,19,VALID,150,VALID,0,
2002-04-04, 01:09:00,VALID,916.853,VALID,0,VALID,97.78,VALID,-0.0679233,VALID,18.9804,VALID,150,VALID,0,
2002-04-04, 01:10:00,VALID,916.848,VALID,0,VALID,97.822,VALID,-0.0509425,VALID,18.9836,VALID,150,VALID,0,
2002-04-04, 01:11:00,VALID,916.85,VALID,0,VALID,97.8462,VALID,-0.0679233,VALID,18.9834,VALID,150,VALID,0,
2002-04-04, 01:12:00,VALID,916.835,VALID,0,VALID,97.7495,VALID,-0.0849042,VALID,18.9705,VALID,150,VALID,0,
2002-04-04, 01:13:00,VALID,916.837,VALID,0,VALID,97.5893,VALID,-0.0679233,VALID,18.9349,VALID,150,VALID,0,
2002-04-04, 01:14:00,VALID,916.822,VALID,0,VALID,97.5918,VALID,-0.0169808,VALID,18.8925,VALID,150,VALID,0,
2002-04-04, 01:15:00,VALID,916.817,VALID,0,VALID,97.7101,VALID,-0.0339617,VALID,18.9225,VALID,150,VALID,0,
2002-04-04, 01:16:00,VALID,916.806,VALID,0,VALID,97.7025,VALID,-0.0679233,VALID,18.9294,VALID,150,VALID,0,
2002-04-04, 01:17:00,VALID,916.8,VALID,0,VALID,97.5867,VALID,-0.0169808,VALID,18.8927,VALID,150,VALID,0.0476562,
2002-04-04, 01:18:00,VALID,916.798,VALID,0,VALID,97.4647,VALID,-0.0509425,VALID,18.8542,VALID,136,VALID,0.250195,
2002-04-04, 01:19:00,VALID,916.791,VALID,0,VALID,97.3464,VALID,-0.0339617,VALID,18.8092,VALID,66,VALID,0.372461,
2002-04-04, 01:20:00,VALID,916.787,VALID,0,VALID,97.2523,VALID,-0.0679233,VALID,18.7511,VALID,42,VALID,0.444046,
2002-04-04, 01:21:00,VALID,916.798,VALID,0,VALID,97.2409,VALID,-0.0339617,VALID,18.7188,VALID,30,VALID,0.625,
2002-04-04, 01:22:00,VALID,916.803,VALID,0,VALID,97.2676,VALID,-0.0509425,VALID,18.686,VALID,28,VALID,0.564509,
2002-04-04, 01:23:00,VALID,916.797,VALID,0,VALID,97.307,VALID,-0.0679233,VALID,18.6798,VALID,28,VALID,0.5625,
2002-04-04, 01:24:00,VALID,916.783,VALID,0,VALID,97.3451,VALID,0,VALID,18.6641,VALID,27,VALID,0.651394,
2002-04-04, 01:25:00,VALID,916.777,VALID,0,VALID,97.4354,VALID,-0.0849042,VALID,18.6477,VALID,27,VALID,0.56851,
2002-04-04, 01:26:00,VALID,916.754,VALID,0,VALID,97.5422,VALID,-0.0509425,VALID,18.6374,VALID,27,VALID,0.678686,
2002-04-04, 01:27:00,VALID,916.732,VALID,0,VALID,97.6389,VALID,0.0339617,VALID,18.6433,VALID,27,VALID,0.780357,
2002-04-04, 01:28:00,VALID,916.714,VALID,0,VALID,97.8182,VALID,0.0169808,VALID,18.6729,VALID,27,VALID,0.612459,
2002-04-04, 01:29:00,VALID,916.704,VALID,0,VALID,98.0941,VALID,0.0339617,VALID,18.7303,VALID,27,VALID,0.373197,
2002-04-04, 01:30:00,VALID,916.673,VALID,0,VALID,98.2658,VALID,0.0169808,VALID,18.7887,VALID,27,VALID,0.0765625,
2002-04-04, 01:31:00,VALID,916.651,VALID,0,VALID,98.3217,VALID,0.0509425,VALID,18.8507,VALID,27,VALID,0.00633446,
2002-04-04, 01:32:00,VALID,916.62,VALID,0,VALID,98.3535,VALID,0.0169808,VALID,18.8892,VALID,27,VALID,0,
2002-04-04, 01:33:00,VALID,916.606,VALID,0,VALID,98.3472,VALID,0.0169808,VALID,18.8982,VALID,27,VALID,0,
2002-04-04, 01:34:00,VALID,916.57,VALID,0,VALID,98.3128,VALID,0.0339617,VALID,18.9181,VALID,27,VALID,0.125195,
2002-04-04, 01:35:00,VALID,916.558,VALID,0,VALID,98.2543,VALID,0.0679233,VALID,18.9017,VALID,27,VALID,0.264648,
2002-04-04, 01:36:00,VALID,916.532,VALID,0,VALID,98.1348,VALID,0.0509425,VALID,18.8791,VALID,27,VALID,0.258213,
2002-04-04, 01:37:00,VALID,916.519,VALID,0,VALID,98.1348,VALID,0.0509425,VALID,18.8498,VALID,27,VALID,0.238582,
2002-04-04, 01:38:00,VALID,916.499,VALID,0,VALID,98.1641,VALID,0.0169808,VALID,18.8595,VALID,27,VALID,0.14308,
2002-04-04, 01:39:00,VALID,916.486,VALID,0,VALID,98.1831,VALID,0.0169808,VALID,18.8696,VALID,27,VALID,0.138622,
2002-04-04, 01:40:00,VALID,916.489,VALID,0,VALID,98.2009,VALID,0.0339617,VALID,18.8659,VALID,27,VALID,0.0454359,
2002-04-04, 01:41:00,VALID,916.468,VALID,0,VALID,98.2073,VALID,-0.0169808,VALID,18.8597,VALID,27,VALID,0,
2002-04-04, 01:42:00,VALID,916.46,VALID,0,VALID,98.1361,VALID,-0.0679233,VALID,18.8581,VALID,27,VALID,0,
2002-04-04, 01:43:00,VALID,916.436,VALID,0,VALID,98.131,VALID,-0.101885,VALID,18.8517,VALID,27,VALID,0,
2002-04-04, 01:44:00,VALID,916.422,VALID,0,VALID,98.173,VALID,-0.118866,VALID,18.8812,VALID,27,VALID,0,
2002-04-04, 01:45:00,VALID,916.399,VALID,0,VALID,98.1513,VALID,-0.0849042,VALID,18.8842,VALID,27,VALID,0.131757,
2002-04-04, 01:46:00,VALID,916.384,VALID,0,VALID,98.1806,VALID,-0.0509425,VALID,18.9001,VALID,343,VALID,0.284054,
2002-04-04, 01:47:00,VALID,916.361,VALID,0,VALID,98.1501,VALID,-0.0849042,VALID,18.9165,VALID,322,VALID,0.041867,
2002-04-04, 01:48:00,VALID,916.338,VALID,0,VALID,98.1043,VALID,-0.0339617,VALID,18.8967,VALID,322,VALID,0.16246,
2002-04-04, 01:49:00,VALID,916.316,VALID,0,VALID,98.295,VALID,-0.0849042,VALID,18.961,VALID,318,VALID,0.249554,
2002-04-04, 01:50:00,VALID,916.307,VALID,0,VALID,98.3154,VALID,-0.0679233,VALID,19.0035,VALID,315,VALID,0.0253906,
2002-04-04, 01:51:00,VALID,916.296,VALID,0,VALID,98.3459,VALID,-0.0849042,VALID,19.033,VALID,268,VALID,0.310937,
2002-04-04, 01:52:00,VALID,916.285,VALID,0,VALID,98.3332,VALID,-0.0849042,VALID,19.0393,VALID,268,VALID,0.235938,
2002-04-04, 01:53:00,VALID,916.289,VALID,0,VALID,98.3306,VALID,-0.0849042,VALID,19.0455,VALID,262,VALID,0.272171,
2002-04-04, 01:54:00,VALID,916.286,VALID,0,VALID,98.3434,VALID,-0.0679233,VALID,19.0487,VALID,261,VALID,0.0338542,
2002-04-04, 01:55:00,VALID,916.287,VALID,0,VALID,98.3179,VALID,-0.0679233,VALID,19.0455,VALID,261,VALID,0,
2002-04-04, 01:56:00,VALID,916.276,VALID,0,VALID,98.2721,VALID,-0.0339617,VALID,19.0187,VALID,261,VALID,0,
2002-04-04, 01:57:00,VALID,916.271,VALID,0,VALID,98.2454,VALID,0.0339617,VALID,19.0113,VALID,261,VALID,0,
2002-04-04, 01:58:00,VALID,916.238,VALID,0,VALID,98.0458,VALID,0.0339617,VALID,18.9665,VALID,261,VALID,0,
2002-04-04, 01:59:00,VALID,916.218,VALID,0,VALID,97.9593,VALID,0.0339617,VALID,18.9114,VALID,261,VALID,0,
2002-04-04, 02:00:00,VALID,916.193,VALID,0,VALID,97.8474,VALID,0.0679233,VALID,18.8599,VALID,261,VALID,0,
2002-04-04, 02:01:00,VALID,916.175,VALID,0,VALID,97.7851,VALID,0,VALID,18.8247,VALID,261,VALID,0,
2002-04-04, 02:02:00,VALID,916.176,VALID,0,VALID,97.8271,VALID,0.0169808,VALID,18.8085,VALID,261,VALID,0,
2002-04-04, 02:03:00,VALID,916.164,VALID,0,VALID,97.9314,VALID,0.0169808,VALID,18.811,VALID,261,VALID,0,
2002-04-04, 02:04:00,VALID,916.155,VALID,0,VALID,97.9644,VALID,0,VALID,18.8277,VALID,261,VALID,0,
2002-04-04, 02:05:00,VALID,916.151,VALID,0,VALID,97.9377,VALID,0.0169808,VALID,18.8475,VALID,261,VALID,0,
2002-04-04, 02:06:00,VALID,916.134,VALID,0,VALID,97.925,VALID,0,VALID,18.8604,VALID,261,VALID,0,
2002-04-04, 02:07:00,VALID,916.111,VALID,0,VALID,97.9072,VALID,0.0509425,VALID,18.8699,VALID,261,VALID,0,
2002-04-04, 02:08:00,VALID,916.101,VALID,0,VALID,97.7927,VALID,0.0169808,VALID,18.847,VALID,261,VALID,0,
2002-04-04, 02:09:00,VALID,916.093,VALID,0,VALID,97.6885,VALID,0.0509425,VALID,18.8309,VALID,261,VALID,0,
2002-04-04, 02:10:00,VALID,916.074,VALID,0,VALID,97.6758,VALID,0.0509425,VALID,18.8147,VALID,261,VALID,0,
2002-04-04, 02:11:00,VALID,916.078,VALID,0,VALID,97.644,VALID,-0.0339617,VALID,18.7956,VALID,261,VALID,0,
2002-04-04, 02:12:00,VALID,916.061,VALID,0,VALID,97.6389,VALID,-0.0849042,VALID,18.7975,VALID,261,VALID,0,
2002-04-04, 02:13:00,VALID,916.046,VALID,0,VALID,97.6465,VALID,-0.0509425,VALID,18.801,VALID,261,VALID,0,
2002-04-04, 02:14:00,VALID,916.031,VALID,0,VALID,97.6402,VALID,-0.0849042,VALID,18.7876,VALID,305,VALID,0.188734,
2002-04-04, 02:15:00,VALID,916.016,VALID,0,VALID,97.5766,VALID,-0.0849042,VALID,18.7751,VALID,356,VALID,0.31033,
2002-04-04, 02:16:00,VALID,916,VALID,0,VALID,97.5664,VALID,-0.0679233,VALID,18.7419,VALID,31,VALID,0.636719,
2002-04-04, 02:17:00,VALID,915.987,VALID,0,VALID,97.7648,VALID,-0.101885,VALID,18.7818,VALID,40,VALID,0.588006,
2002-04-04, 02:18:00,VALID,915.977,VALID,0,VALID,97.7737,VALID,-0.101885,VALID,18.7779,VALID,28,VALID,0.815878,
2002-04-04, 02:19:00,VALID,915.969,VALID,0,VALID,97.9364,VALID,-0.0509425,VALID,18.8037,VALID,40,VALID,0.624399,
2002-04-04, 02:20:00,VALID,915.957,VALID,0,VALID,97.8818,VALID,-0.101885,VALID,18.8007,VALID,40,VALID,0.569111,
2002-04-04, 02:21:00,VALID,915.956,VALID,0,VALID,97.9797,VALID,-0.101885,VALID,18.794,VALID,34,VALID,0.652244,
2002-04-04, 02:22:00,VALID,915.964,VALID,0,VALID,98.0318,VALID,-0.0849042,VALID,18.8106,VALID,34,VALID,0.592634,
2002-04-04, 02:23:00,VALID,915.967,VALID,0,VALID,98.0865,VALID,-0.101885,VALID,18.8233,VALID,35,VALID,0.454688,
2002-04-04, 02:24:00,VALID,915.968,VALID,0,VALID,98.0928,VALID,-0.101885,VALID,18.8328,VALID,37,VALID,0.432813,
2002-04-04, 02:25:00,VALID,915.974,VALID,0,VALID,98.159,VALID,-0.101885,VALID,18.8492,VALID,46,VALID,0.587109,
2002-04-04, 02:26:00,VALID,915.976,VALID,0,VALID,98.1857,VALID,-0.0679233,VALID,18.8614,VALID,44,VALID,0.646115,
2002-04-04, 02:27:00,VALID,915.963,VALID,0,VALID,98.1793,VALID,0.0169808,VALID,18.8604,VALID,40,VALID,0.70638,
2002-04-04, 02:28:00,VALID,915.945,VALID,0,VALID,98.2035,VALID,0.0679233,VALID,18.8537,VALID,41,VALID,0.722545,
2002-04-04, 02:29:00,VALID,915.914,VALID,0,VALID,98.1819,VALID,0.0509425,VALID,18.857,VALID,32,VALID,0.602196,
2002-04-04, 02:30:00,VALID,915.904,VALID,0,VALID,97.9937,VALID,0.0339617,VALID,18.8053,VALID,32,VALID,0.456081,
2002-04-04, 02:31:00,VALID,915.898,VALID,0,VALID,97.8474,VALID,0.0509425,VALID,18.731,VALID,30,VALID,0.48738,
2002-04-04, 02:32:00,VALID,915.888,VALID,0,VALID,97.9174,VALID,0.0169808,VALID,18.7054,VALID,27,VALID,0.499199,
2002-04-04, 02:33:00,VALID,915.873,VALID,0,VALID,98.0267,VALID,0.0509425,VALID,18.6952,VALID,21,VALID,0.495089,
2002-04-04, 02:34:00,VALID,915.863,VALID,0,VALID,98.2543,VALID,0.0509425,VALID,18.7472,VALID,13,VALID,0.443668,
2002-04-04, 02:35:00,VALID,915.856,VALID,0,VALID,98.2963,VALID,0.0169808,VALID,18.7737,VALID,13,VALID,0.253806,
2002-04-04, 02:36:00,VALID,915.841,VALID,0,VALID,98.3586,VALID,0,VALID,18.7797,VALID,13,VALID,0.0105469,
2002-04-04, 02:37:00,VALID,915.82,VALID,0,VALID,98.4311,VALID,0.0169808,VALID,18.8157,VALID,13,VALID,0,
2002-04-04, 02:38:00,VALID,915.8,VALID,0,VALID,98.4273,VALID,0.0509425,VALID,18.8343,VALID,13,VALID,0,
2002-04-04, 02:39:00,VALID,915.787,VALID,0,VALID,98.3968,VALID,0.0169808,VALID,18.8445,VALID,13,VALID,0,
2002-04-04, 02:40:00,VALID,915.766,VALID,0,VALID,98.3319,VALID,0.0169808,VALID,18.8281,VALID,13,VALID,0.0177734,
2002-04-04, 02:41:00,VALID,915.774,VALID,0,VALID,98.2785,VALID,-0.0169808,VALID,18.8122,VALID,13,VALID,0.207617,
2002-04-04, 02:42:00,VALID,915.774,VALID,0,VALID,98.0572,VALID,-0.0169808,VALID,18.7612,VALID,13,VALID,0.163462,
2002-04-04, 02:43:00,VALID,915.764,VALID,0,VALID,97.9428,VALID,-0.0679233,VALID,18.6969,VALID,13,VALID,0.404647,
2002-04-04, 02:44:00,VALID,915.743,VALID,0,VALID,97.9708,VALID,-0.0509425,VALID,18.6713,VALID,13,VALID,0.535268,
2002-04-04, 02:45:00,VALID,915.745,VALID,0,VALID,98.0687,VALID,-0.0849042,VALID,18.6812,VALID,15,VALID,0.595553,
2002-04-04, 02:46:00,VALID,915.722,VALID,0,VALID,98.1005,VALID,-0.101885,VALID,18.684,VALID,27,VALID,0.687294,
2002-04-04, 02:47:00,VALID,915.712,VALID,0,VALID,98.1577,VALID,-0.0509425,VALID,18.7071,VALID,26,VALID,0.616365,
2002-04-04, 02:48:00,VALID,915.69,VALID,0,VALID,98.1806,VALID,-0.101885,VALID,18.7195,VALID,23,VALID,0.523655,
2002-04-04, 02:49:00,VALID,915.694,VALID,0,VALID,98.1145,VALID,-0.0849042,VALID,18.7232,VALID,24,VALID,0.553602,
2002-04-04, 02:50:00,VALID,915.687,VALID,0,VALID,98.0496,VALID,-0.0509425,VALID,18.72,VALID,28,VALID,0.463006,
2002-04-04, 02:51:00,VALID,915.685,VALID,0,VALID,98.0305,VALID,-0.0849042,VALID,18.7331,VALID,29,VALID,0.364654,
2002-04-04, 02:52:00,VALID,915.663,VALID,0,VALID,98.0636,VALID,-0.0849042,VALID,18.7523,VALID,26,VALID,0.372997,
2002-04-04, 02:53:00,VALID,915.667,VALID,0,VALID,98.0636,VALID,-0.0509425,VALID,18.7848,VALID,23,VALID,0.476763,
2002-04-04, 02:54:00,VALID,915.663,VALID,0,VALID,98.0356,VALID,-0.0509425,VALID,18.8072,VALID,20,VALID,0.372596,
2002-04-04, 02:55:00,VALID,915.647,VALID,0,VALID,97.9301,VALID,-0.0679233,VALID,18.8194,VALID,20,VALID,0.0819196,
2002-04-04, 02:56:00,VALID,915.64,VALID,0,VALID,97.761,VALID,-0.0679233,VALID,18.8032,VALID,20,VALID,0.173633,
2002-04-04, 02:57:00,VALID,915.62,VALID,0,VALID,97.5842,VALID,0.0339617,VALID,18.7668,VALID,20,VALID,0.0302734,
2002-04-04, 02:58:00,VALID,915.593,VALID,0,VALID,97.5359,VALID,0,VALID,18.7605,VALID,19,VALID,0.23418,
2002-04-04, 02:59:00,VALID,915.566,VALID,0,VALID,97.457,VALID,0,VALID,18.7474,VALID,354,VALID,0.372677,
2002-04-04, 03:00:00,VALID,915.545,VALID,0,VALID,97.3579,VALID,0.0169808,VALID,18.7153,VALID,354,VALID,0.335938,
2002-04-04, 03:01:00,VALID,915.525,VALID,0,VALID,97.2943,VALID,0.0339617,VALID,18.6867,VALID,344,VALID,0.584375,
2002-04-04, 03:02:00,VALID,915.515,VALID,0,VALID,97.4392,VALID,0,VALID,18.6927,VALID,354,VALID,0.631123,
2002-04-04, 03:03:00,VALID,915.499,VALID,0,VALID,97.8055,VALID,0.0169808,VALID,18.7603,VALID,359,VALID,0.686022,
2002-04-04, 03:04:00,VALID,915.493,VALID,0,VALID,97.5855,VALID,0.0169808,VALID,18.7799,VALID,359,VALID,0.438702,
2002-04-04, 03:05:00,VALID,915.481,VALID,0,VALID,97.3401,VALID,0.0169808,VALID,18.7282,VALID,360,VALID,0.44351,
2002-04-04, 03:06:00,VALID,915.455,VALID,0,VALID,97.4367,VALID,0.0169808,VALID,18.7409,VALID,2,VALID,0.313839,
2002-04-04, 03:07:00,VALID,915.445,VALID,0,VALID,97.5461,VALID,0.0169808,VALID,18.7672,VALID,2,VALID,0.351974,
2002-04-04, 03:08:00,VALID,915.417,VALID,0,VALID,97.616,VALID,0,VALID,18.8092,VALID,2,VALID,0.174679,
2002-04-04, 03:09:00,VALID,915.416,VALID,0,VALID,97.5779,VALID,0.0339617,VALID,18.8254,VALID,2,VALID,0.0451172,
2002-04-04, 03:10:00,VALID,915.397,VALID,0,VALID,97.56,VALID,0.0509425,VALID,18.8378,VALID,2,VALID,0.104941,
2002-04-04, 03:11:00,VALID,915.388,VALID,0,VALID,97.5562,VALID,0,VALID,18.8542,VALID,2,VALID,0.130912,
2002-04-04, 03:12:00,VALID,915.381,VALID,0,VALID,97.5206,VALID,0.0339617,VALID,18.8773,VALID,13,VALID,0.197917,
2002-04-04, 03:13:00,VALID,915.38,VALID,0,VALID,97.4977,VALID,0.0169808,VALID,18.9034,VALID,14,VALID,0.183789,
2002-04-04, 03:14:00,VALID,915.36,VALID,0,VALID,97.4621,VALID,0,VALID,18.8997,VALID,36,VALID,0.281055,
2002-04-04, 03:15:00,VALID,915.363,VALID,0,VALID,97.4825,VALID,0,VALID,18.916,VALID,40,VALID,0.327123,
2002-04-04, 03:16:00,VALID,915.354,VALID,0,VALID,97.5435,VALID,0.0169808,VALID,18.9248,VALID,43,VALID,0.467147,
2002-04-04, 03:17:00,VALID,915.335,VALID,0,VALID,97.4672,VALID,0.0509425,VALID,18.9538,VALID,59,VALID,0.558259,
2002-04-04, 03:18:00,VALID,915.334,VALID,0,VALID,97.0832,VALID,0.0339617,VALID,18.9315,VALID,66,VALID,0.566306,
2002-04-04, 03:19:00,VALID,915.32,VALID,0,VALID,96.9789,VALID,0.0339617,VALID,18.8863,VALID,61,VALID,0.598273,
2002-04-04, 03:20:00,VALID,915.303,VALID,0,VALID,97.012,VALID,0.0509425,VALID,18.8796,VALID,60,VALID,0.645354,
2002-04-04, 03:21:00,VALID,915.29,VALID,0,VALID,96.6025,VALID,0.0679233,VALID,18.8247,VALID,59,VALID,0.623698,
2002-04-04, 03:22:00,VALID,915.272,VALID,0,VALID,96.2401,VALID,0.0509425,VALID,18.7319,VALID,55,VALID,0.681424,
2002-04-04, 03:23:00,VALID,915.253,VALID,0,VALID,96.6013,VALID,0.0509425,VALID,18.6989,VALID,40,VALID,0.717142,
2002-04-04, 03:24:00,VALID,915.235,VALID,0,VALID,96.6547,VALID,0.0169808,VALID,18.689,VALID,28,VALID,0.602196,
2002-04-04, 03:25:00,VALID,915.225,VALID,0,VALID,96.614,VALID,0.0169808,VALID,18.6507,VALID,37,VALID,0.646635,
2002-04-04, 03:26:00,VALID,915.193,VALID,0,VALID,97.1938,VALID,0.0169808,VALID,18.6865,VALID,53,VALID,0.823269,
2002-04-04, 03:27:00,VALID,915.174,VALID,0,VALID,97.3134,VALID,0,VALID,18.7195,VALID,57,VALID,0.871394,
2002-04-04, 03:28:00,VALID,915.17,VALID,0,VALID,97.4075,VALID,0,VALID,18.7587,VALID,60,VALID,0.795536,
2002-04-04, 03:29:00,VALID,915.16,VALID,0,VALID,97.4151,VALID,0,VALID,18.7645,VALID,63,VALID,0.540234,
2002-04-04, 03:30:00,VALID,915.157,VALID,0,VALID,97.4507,VALID,0.0169808,VALID,18.7876,VALID,64,VALID,0.306641,
2002-04-04, 03:31:00,VALID,915.155,VALID,0,VALID,97.2231,VALID,0,VALID,18.7608,VALID,64,VALID,0.15293,
2002-04-04, 03:32:00,VALID,915.152,VALID,0,VALID,97.0349,VALID,-0.0169808,VALID,18.726,VALID,64,VALID,0.166596,